Weather History for Burns, OR

Change the Weather History Date:

Thursday, October 25, 2012

  Actual Average Record
Temperature  
Mean Temperature 34 °F 42 °F  
Max Temperature 46 °F 57 °F 76 °F (1944)
Min Temperature 21 °F 26 °F 13 °F (1997)
Degree Days  
Heating Degree Days 31 24  
Month to date heating degree days 517 483  
Since 1 July heating degree days 705 902  
Cooling Degree Days 0 0  
Month to date cooling degree days 0 0  
Year to date cooling degree days 309 215  
Moisture  
Dew Point 25 °F    
Average Humidity 71    
Maximum Humidity 100    
Minimum Humidity 41    
Precipitation  
Precipitation 0.00 in 0.03 in 0.54 in (1957)
Month to date precipitation 0.77 0.59  
Year to date precipitation 7.20 8.01  
Sea Level Pressure  
Sea Level Pressure 30.29 in    
Wind  
Wind Speed 3 mph (SW)    
Max Wind Speed 10 mph    
Max Gust Speed 14 mph    
Visibility 5 miles    
Events Fog    
T = Trace of Precipitation, MM = Missing Value Source: NWS Daily Summary

Daily Weather History Graph

Daily Weather History Graph

Search for Another Location

Airport:

Trip Planner

Search our weather history database for the weather conditions in past years. The results will help you decide how hot, cold, wet, or windy it might be!

Date:

Astronomy

Oct. 25, 2012 Rise Set
Actual Time 7:23 AM PDT 5:55 PM PDT
Civil Twilight 6:53 AM PDT 6:25 PM PDT
Nautical Twilight 6:20 AM PDT 6:58 PM PDT
Astronomical Twilight 5:47 AM PDT 7:31 PM PDT
Moon 3:49 PM PDT 3:18 AM PDT
Length of Visible Light 11h 31m
Length of Day
10h 32m
Waxing Gibbous, 85% of the Moon is Illuminated
Oct 25
Waxing Gibbous
Oct 29
Full
Nov 6
Last Quarter
Nov 13
New
Nov 20
First Quarter

Hourly Weather History & Observations

Time (PDT) Temp. Windchill Dew Point Humidity Pressure Visibility Wind Dir Wind Speed Gust Speed Precip Events Conditions
12:04 AM 30.2 °F 26.7 °F 28.4 °F 93% 30.14 in 6.0 mi West 3.5 mph - N/A   Overcast
12:21 AM 30.2 °F 25.4 °F 28.4 °F 93% 30.14 in 10.0 mi West 4.6 mph - N/A   Overcast
12:40 AM 30.2 °F 26.7 °F 28.4 °F 93% 30.14 in 7.0 mi WSW 3.5 mph - N/A   Mostly Cloudy
12:53 AM 30.0 °F - 28.0 °F 92% 30.20 in 1.5 mi Calm Calm - N/A   Overcast
12:57 AM 28.4 °F 24.6 °F 28.4 °F 100% 30.14 in 0.8 mi SW 3.5 mph - N/A   Overcast
1:06 AM 28.4 °F - 26.6 °F 93% 30.14 in 0.2 mi Calm Calm - N/A Fog Light Freezing Fog
1:21 AM 28.4 °F - 26.6 °F 93% 30.15 in 0.2 mi Calm Calm - N/A Fog Light Freezing Fog
1:50 AM 26.6 °F 22.6 °F 24.8 °F 93% 30.16 in 1.2 mi SSW 3.5 mph - N/A   Overcast
1:53 AM 26.1 °F 20.5 °F 25.0 °F 96% 30.22 in 1.0 mi SSW 4.6 mph - N/A   Overcast
2:01 AM 26.6 °F - 24.8 °F 93% 30.16 in 0.5 mi Calm Calm - N/A Fog Light Freezing Fog
2:12 AM 26.6 °F - 24.8 °F 93% 30.16 in 1.5 mi Calm Calm - N/A   Overcast
2:21 AM 24.8 °F - 23.0 °F 93% 30.16 in 2.0 mi Calm Calm - N/A   Overcast
2:26 AM 24.8 °F - 23.0 °F 93% 30.16 in 1.8 mi Calm Calm - N/A   Overcast
2:36 AM 26.6 °F - 24.8 °F 93% 30.16 in 1.2 mi Calm Calm - N/A   Overcast
2:50 AM 26.6 °F - 24.8 °F 93% 30.17 in 0.5 mi Calm Calm - N/A Fog Light Freezing Fog
2:53 AM 26.1 °F - 25.0 °F 96% 30.24 in 0.5 mi Calm Calm - N/A Fog Light Freezing Fog
3:53 AM 26.1 °F - 25.0 °F 96% 30.26 in 0.5 mi Calm Calm - N/A Fog Light Freezing Fog
4:53 AM 28.0 °F - 26.1 °F 92% 30.27 in 1.2 mi Calm Calm - N/A   Overcast
5:13 AM 26.6 °F - 26.6 °F 100% 30.21 in 0.8 mi Calm Calm - N/A   Mist
5:22 AM 26.6 °F - 24.8 °F 93% 30.21 in 1.2 mi Calm Calm - N/A   Overcast
5:33 AM 26.6 °F - 24.8 °F 93% 30.22 in 0.2 mi Calm Calm - N/A Fog Light Freezing Fog
5:45 AM 24.8 °F - 24.8 °F 100% 30.22 in 0.8 mi Calm Calm - N/A   Mostly Cloudy
6:06 AM 24.8 °F - 21.2 °F 86% 30.23 in 1.5 mi Calm Calm - N/A   Mostly Cloudy
6:13 AM 24.8 °F - 21.2 °F 86% 30.23 in 1.2 mi Calm Calm - N/A   Overcast
6:25 AM 24.8 °F - 21.2 °F 86% 30.24 in 2.0 mi Calm Calm - N/A   Overcast
6:30 AM 24.8 °F - 23.0 °F 93% 30.24 in 1.8 mi Calm Calm - N/A   Overcast
6:35 AM 24.8 °F - 21.2 °F 86% 30.24 in 1.2 mi Calm Calm - N/A   Overcast
6:39 AM 24.8 °F 19.1 °F 21.2 °F 86% 30.24 in 1.5 mi SW 4.6 mph - N/A   Overcast
6:44 AM 24.8 °F 19.1 °F 21.2 °F 86% 30.24 in 3.0 mi SW 4.6 mph - N/A   Overcast
6:53 AM 24.1 °F 16.0 °F 21.9 °F 91% 30.34 in 10.0 mi SW 6.9 mph - N/A   Mostly Cloudy
7:53 AM 26.1 °F - 25.0 °F 96% 30.35 in 10.0 mi Calm Calm - N/A   Overcast
8:53 AM 28.9 °F 23.9 °F 28.0 °F 96% 30.37 in 10.0 mi West 4.6 mph - N/A   Overcast
9:53 AM 32.0 °F - 30.0 °F 92% 30.38 in 10.0 mi Calm Calm - N/A   Clear
10:53 AM 37.0 °F - 30.9 °F 79% 30.39 in 10.0 mi Calm Calm - N/A   Clear
11:53 AM 39.9 °F 36.7 °F 30.0 °F 68% 30.40 in 10.0 mi South 4.6 mph - N/A   Partly Cloudy
12:53 PM 42.1 °F 40.2 °F 26.1 °F 53% 30.40 in 10.0 mi Variable 3.5 mph - N/A   Overcast
1:53 PM 41.0 °F 38.0 °F 23.0 °F 49% 30.40 in 10.0 mi West 4.6 mph - N/A   Overcast
2:53 PM 44.1 °F 40.8 °F 25.0 °F 47% 30.40 in 10.0 mi Variable 5.8 mph - N/A   Scattered Clouds
3:53 PM 45.0 °F 43.5 °F 23.0 °F 42% 30.40 in 10.0 mi Variable 3.5 mph - N/A   Mostly Cloudy
4:53 PM 41.0 °F 36.4 °F 26.1 °F 55% 30.41 in 10.0 mi NNE 6.9 mph - N/A   Clear
5:53 PM 36.0 °F 32.1 °F 28.0 °F 73% 30.45 in 10.0 mi ESE 4.6 mph - N/A   Clear
6:53 PM 33.1 °F 27.7 °F 27.0 °F 78% 30.47 in 10.0 mi ESE 5.8 mph - N/A   Scattered Clouds
7:53 PM 28.9 °F 23.9 °F 25.0 °F 85% 30.49 in 10.0 mi North 4.6 mph - N/A   Clear
8:53 PM 26.1 °F - 21.9 °F 84% 30.48 in 10.0 mi Calm Calm - N/A   Clear
9:53 PM 24.1 °F - 21.9 °F 91% 30.48 in 10.0 mi Calm Calm - N/A   Clear
10:53 PM 25.0 °F - 21.9 °F 88% 30.47 in 10.0 mi Calm Calm - N/A   Clear
11:53 PM 21.9 °F - 19.9 °F 92% 30.48 in 10.0 mi Calm Calm - N/A   Clear